Tracking 23731 objects as of 27-Sep-2021
HD Live streaming from Space Station
objects crossing your sky now

STARLINK-2116

Track STARLINK-2116 now!
10-day predictions
STARLINK-2116 is classified as:


NORAD ID: 47724
Int'l Code: 2021-017C
Perigee: 354.4 km
Apogee: 359.2 km
Inclination: 53.0 °
Period: 91.5 minutes
Semi major axis: 6727 km
RCS: Unknown
Launch date: March 4, 2021
Source: United States (US)
Launch site: AIR FORCE EASTERN TEST RANGE (AFETR)
aabbcc
Your satellite tracking list
Your tracking list is empty




NASA's NSSDC Master Catalog

Two Line Element Set (TLE):
1 47724U 21017C   21270.22027453  .00006216  00000-0  48636-4 0  9998
2 47724  53.0415 236.0198 0003549 341.7177  18.3712 15.73221599 33208
Source of the keplerian elements: AFSPC